TimeMST,TemperatureF,Dew PointF,Humidity,Sea Level PressureIn,VisibilityMPH,Wind Direction,Wind SpeedMPH,Gust SpeedMPH,PrecipitationIn,Events,Conditions,WindDirDegrees,DateUTC
12:55 AM,27.0,26.1,96,30.33,10.0,West,3.5,-,N/A,,Clear,270,2013-02-16 07:55:00
1:55 AM,26.1,24.1,92,30.32,10.0,SSE,3.5,-,N/A,,Clear,150,2013-02-16 08:55:00
2:55 AM,25.0,24.1,96,30.30,10.0,Calm,Calm,-,N/A,,Clear,0,2013-02-16 09:55:00
3:55 AM,24.1,21.9,91,30.28,10.0,Calm,Calm,-,N/A,,Clear,0,2013-02-16 10:55:00
4:55 AM,23.0,21.0,92,30.26,4.0,Calm,Calm,-,N/A,,Clear,0,2013-02-16 11:55:00
5:55 AM,23.0,21.0,92,30.25,9.0,Calm,Calm,-,N/A,,Clear,0,2013-02-16 12:55:00
6:55 AM,24.1,21.9,91,30.23,10.0,Calm,Calm,-,N/A,,Mostly Cloudy,0,2013-02-16 13:55:00
7:55 AM,25.0,23.0,92,30.22,10.0,Calm,Calm,-,N/A,,Mostly Cloudy,0,2013-02-16 14:55:00
8:55 AM,26.1,25.0,96,30.20,10.0,Calm,Calm,-,N/A,,Mostly Cloudy,0,2013-02-16 15:55:00
9:55 AM,28.0,27.0,96,30.19,10.0,Calm,Calm,-,N/A,,Overcast,0,2013-02-16 16:55:00
10:55 AM,30.0,27.0,88,30.17,10.0,Calm,Calm,-,N/A,,Overcast,0,2013-02-16 17:55:00
11:55 AM,30.9,28.0,89,30.14,10.0,Calm,Calm,-,N/A,,Overcast,0,2013-02-16 18:55:00
12:55 PM,32.0,28.0,85,30.10,10.0,Calm,Calm,-,N/A,,Overcast,0,2013-02-16 19:55:00
1:55 PM,34.0,28.0,79,30.06,10.0,Calm,Calm,-,N/A,,Overcast,0,2013-02-16 20:55:00
2:55 PM,35.1,28.9,78,30.02,10.0,Calm,Calm,-,N/A,,Overcast,0,2013-02-16 21:55:00
3:55 PM,35.1,30.0,82,29.98,10.0,Calm,Calm,-,N/A,,Overcast,0,2013-02-16 22:55:00
4:55 PM,34.0,30.0,85,29.94,10.0,Calm,Calm,-,0.00,,Overcast,0,2013-02-16 23:55:00
5:55 PM,34.0,30.0,85,29.91,10.0,WNW,4.6,-,0.00,,Overcast,300,2013-02-17 00:55:00
6:40 PM,33.8,30.2,87,29.83,10.0,Calm,Calm,-,0.01,Rain,Light Rain,0,2013-02-17 01:40:00
6:55 PM,33.1,30.9,92,29.91,9.0,ESE,5.8,-,0.02,Rain,Light Rain,110,2013-02-17 01:55:00
7:08 PM,33.8,30.2,87,29.82,10.0,South,3.5,-,0.00,,Overcast,170,2013-02-17 02:08:00
7:55 PM,33.1,30.9,92,29.89,10.0,North,3.5,-,0.00,,Overcast,350,2013-02-17 02:55:00
8:55 PM,30.9,30.0,96,29.88,9.0,North,-9999.0,-,N/A,,Scattered Clouds,0,2013-02-17 03:55:00
9:55 PM,30.9,30.0,96,29.88,9.0,South,4.6,-,N/A,,Mostly Cloudy,170,2013-02-17 04:55:00
10:55 PM,34.0,32.0,92,29.87,10.0,SSW,8.1,-,N/A,,Overcast,200,2013-02-17 05:55:00
11:55 PM,36.0,30.0,79,29.85,10.0,SSW,9.2,-,N/A,,Mostly Cloudy,200,2013-02-17 06:55:00